Regional Weather Roundup
Issued by NWS

Home | Current Version | Previous Version | Graphics & Text | Print | Product List | Glossary On
Versions: 1 2 3 4 5 6 7 8 9 10 11 12 13 14 15 16 17 18 19 20 21 22 23 24 25 26 27 28 29 30 31 32 33 34 35 36 37 38 39 40 41 42 43 44 45 46 47 48 49 50
000
ASUS45 KTFX 191604
RWRMT
MONTANA HOURLY WEATHER ROUNDUP
NATIONAL WEATHER SERVICE GREAT FALLS MT
1004 AM MDT FRI SEP 19 2014

NOTE: "FAIR" INDICATES FEW OR NO CLOUDS BELOW 12000 FEET WITH NO
SIGNIFICANT WEATHER AND/OR OBSTRUCTIONS TO VISIBILITY.

* THESE STATIONS ARE NOT UNDER NWS QUALITY CONTROL. THEY DO NOT
   REPORT WEATHER SUCH AS PRECIPITATION OR FOG.

MTZ001>007-043-191700-
WEST OF THE DIVIDE
CITY           SKY/WX    TMP DP  RH WIND       PRES   REMARKS
KALISPELL      CLOUDY    63  52  68 SE7       29.97R
MISSOULA       CLOUDY    64  46  52 W8        30.04R
BUTTE          PTSUNNY   57  43  60 CALM      30.09R
MULLAN PASS    CLOUDY    46  45  96 VRB6      30.12R
* ESSEX        N/A       55  53  93 N/A        N/A
* LINCOLN      N/A       58  44  60 SW5G12     N/A
* LOOKOUT PASS N/A       52  45  77 SE6        N/A
* POLSON       N/A       60  47  62 SW2G8      N/A
* RONAN APT    CLOUDY    63  46  54 SW6        N/A
* SEELEY LAKE  N/A       60  45  58 W5         N/A
* THOMP F APT  PTSUNNY   58  49  72 SE1        N/A
$$

MTZ008-052>055-191700-
SOUTHWEST MONTANA
CITY           SKY/WX    TMP DP  RH WIND       PRES   REMARKS
BOZEMAN        PTCLDY    61  48  62 E5        30.02R
DILLON         PTCLDY    63  43  48 S14       30.08S
W YELLOWSTONE  FOG       45  45 100 CALM      30.15S VSB M1/4
* THREE FORKS  PTSUNNY   63  41  45 N/A        N/A
* BOULDER HILL N/A       55  39  55 S16        N/A
* MONIDA PASS  N/A       50  46  86 W8         N/A
* RAYNOLDS PAS N/A       50  27  41 SE11       N/A
* WHITEHALL    N/A       61  43  52 W7G13      N/A
* WISE RIVER   N/A       58  41  53 W12G19     N/A
$$

MTZ009>010-012-014-046-048-049-054-191700-
EAST SLOPES AND CENTRAL MONTANA
CITY           SKY/WX    TMP DP  RH WIND       PRES   REMARKS
CUT BANK       CLOUDY    66  45  47 W15       29.86S
GREAT FALLS    CLOUDY    64  46  52 SW15      29.89R
HELENA         PTSUNNY   64  45  50 W12       30.00R
MALMSTROM AFB  CLOUDY    64  46  52 W13G24    29.91R
* CONRAD       PTSUNNY   66  52  61 N/A        N/A
* EAST GLACIER N/A       58  44  60 W26G32     N/A
* MONARCH      N/A       58  39  49 W17G27     N/A
* PENDROY      N/A       64  48  56 W8G13      N/A
* ROGERS PASS  N/A       55  43  64 SE14G24    N/A
* SAINT MARY   N/A       58  46  65 SW10G23    N/A
* SWEET GRASS  N/A       62  42  48 W15G20     N/A
$$

MTZ011-013-016-021-035-040-045-047-050-051-191700-
NORTH CENTRAL MONTANA
CITY           SKY/WX    TMP DP  RH WIND       PRES   REMARKS
HAVRE          PTSUNNY   64  50  61 SW17      29.79R
LEWISTOWN      CLOUDY    64  46  52 W7        29.90R
* CHESTER      N/A       61  46  58 W9         N/A
* DENTON       N/A       66  47  51 W17G24     N/A
* GEYSER       N/A       62  47  58 W13        N/A
* JUDITH GAP   N/A       64  47  54 W14G20     N/A
* LOMA         N/A       66  49  54 SW7G12     N/A
$$

MTZ017>020-022>027-061-062-191700-
NORTHEAST MONTANA
CITY           SKY/WX    TMP DP  RH WIND       PRES   REMARKS
GLASGOW        PTCLDY    66  48  52 W16       29.72R
GLENDIVE       PTCLDY    70  48  46 W12G20    29.76R
JORDAN         PTCLDY    72  48  43 W16G26    29.78R
SIDNEY         PTCLDY    70  48  46 W14       29.70S
WOLF POINT     PTCLDY    70  50  49 W14G25    29.69S
* BEAVER HILL  N/A       69  49  49 SW11G17    N/A
* CIRCLE       N/A       67  53  61 W14        N/A
* LINDSAY DVD  N/A       67  48  51 SW15       N/A
* NAVAJO       N/A       65  49  56 NW20G29    N/A
* SACO         N/A       65  49  56 W12G17     N/A
$$

MTZ028>042-056>058-191700-
SOUTHCENTRAL AND SOUTHEAST MONTANA
CITY           SKY/WX    TMP DP  RH WIND       PRES   REMARKS
BAKER          SUNNY     70  52  53 W15       29.80R
BILLINGS       PTCLDY    64  54  70 SW12      29.91R
LIVINGSTON     PTCLDY    64  46  52 W13       29.98R
MILES CITY     CLOUDY    70  52  53 W9        29.80R
* LAUREL APT   SUNNY     63  52  68 S5         N/A
* ROUNDUP APT  PTCLDY    68  45  44 SW22G28    N/A
* ALZADA       N/A       72  54  53 W12        N/A
* HYSHAM       N/A       64  49  58 W4         N/A
* LAME DEER    N/A       64  50  61 W12G19     N/A
* REED POINT   N/A       68  48  49 W13        N/A
* ROSCOE HILL  N/A       66  34  31 VRB4G10    N/A
$$

REGIONAL REPORTS...DAKOTAS
CITY           SKY/WX    TMP DP  RH WIND       PRES   REMARKS
WILLISTON      PTCLDY    72  46  40 W22G31    29.63S
DICKINSON      PTCLDY    73  52  48 W15       29.70R
BEACH          N/A       72  50  46 W15       29.76R
CROSBY         SUNNY     68  48  49 W17G25    29.59S
TIOGA          SUNNY     73  46  38 W21       29.65R
WATFORD CITY   SUNNY     73  48  41 W20       29.64S
BISMARCK       CLOUDY    72  59  64 W12       29.64R
GRAND FORKS    LGT RAIN  66  63  90 S10       29.55R
FARGO          CLOUDY    66  61  84 S15       29.62F
BUFFALO SD     PTSUNNY   72  54  53 W17       29.75R
RAPID CITY     CLOUDY    75  54  48 CALM      29.83S
$$

REGIONAL REPORTS...WYOMING/IDAHO/WASHINGTON
CITY           SKY/WX    TMP DP  RH WIND       PRES   REMARKS
GILLETTE       PTCLDY    72  52  49 NW10      29.93R
SHERIDAN       SUNNY     68  55  63 CALM      29.91S
CODY           SUNNY    N/A N/A N/A N/A        N/A
YELLOWSTONE LA SUNNY     52  48  86 CALM      30.21S
SALMON         SUNNY     52  45  77 NW3       30.09R
MULLAN PASS    CLOUDY    46  45  96 VRB6      30.12S
SAND POINT     PTCLDY    59  50  72 S7        30.02R
SPOKANE        SUNNY     59  50  72 S15       30.03R

$$




USA.gov is the U.S. government's official web portal to all federal, state and local government web resources and services.